SCP
0 0 0 0 0 -0 1 1 2 4 3 4 4 4 2 2 2 1 0 0 1 0 1 -0 -0 0 1 1 1 0 0 0 0 0 0 0 0 0 0 0 0 0 0
-0 -0 -0 -0 0 0 1 1 2 2 4 4 4 4 3 4 2 0 0 1 1 0 0 0 -0 0 1 1 1 0 0 0 0 0 0 0 0 0 0 0 0 0 0
0 0 0 -0 -0 -0 0 1 2 3 2 2 3 5 4 4 1 0 0 0 0 0 0 0 0 0 1 2 2 1 0 0 0 0 0 0 0 0 0 0 0 0 0
0 0 -0 -0 -0 0 0 2 1 2 2 2 1 1 1 2 1 0 0 0 0 0 0 0 0 0 1 1 2 1 1 0 0 0 0 0 0 0 0 0 0 -0 0
0 0 0 0 0 0 1 1 1 1 1 1 1 1 1 1 0 0 0 0 0 0 0 0 1 1 2 2 1 1 0 0 0 0 0 0 0 0 0 -0 0 0 0
0 0 0 0 1 1 1 1 1 1 1 2 1 0 0 1 1 1 1 0 1 0 0 0 0 1 1 1 0 0 0 0 0 0 0 0 0 0 0 0 -0 0 0
0 0 0 0 0 0 1 1 1 1 1 1 1 1 0 0 0 0 0 0 0 0 0 0 0 0 0 0 0 0 0 0 0 0 0 0 0 0 0 0 0 0 0
0 0 0 0 0 0 0 1 1 1 0 0 1 1 0 0 0 0 0 0 0 0 0 0 0 0 0 0 0 0 0 0 0 0 0 0 0 0 0 0 0 0 0
0 0 0 0 0 0 0 0 0 0 0 0 0 1 0 0 0 0 0 0 0 0 0 0 0 0 0 0 0 0 0 0 0 0 0 0 0 0 0 0 0 0 0
0 0 0 0 0 0 -0 -0 -0 -0 -0 -0 0 0 0 0 0 0 0 0 0 0 0 0 0 0 0 0 0 0 0 0 0 0 0 0 0 0 0 0 0 0 0
0 0 0 0 0 0 -0 -0 -0 -0 -0 -0 -0 -0 0 0 0 0 0 -0 -0 -0 0 0 0 0 0 0 0 0 0 0 0 0 0 0 0 0 0 0 0 0 0
0 0 0 0 0 0 0 -0 -0 -0 -0 -0 -0 0 0 0 0 0 0 0 0 -0 0 0 -0 0 0 0 0 0 0 0 0 0 0 0 0 0 0 0 0 0 0
0 0 0 0 0 0 0 0 0 0 -0 -0 -0 0 0 0 0 0 0 0 0 0 0 0 0 0 0 0 0 0 0 0 0 0 0 0 0 0 0 0 0 0 0
0 0 0 0 0 0 0 0 0 0 0 -0 0 0 0 0 0 0 0 0 0 0 0 0 0 0 0 0 0 0 0 0 0 0 0 0 0 0 0 0 0 0 0
0 0 0 0 0 0 0 0 0 0 0 0 0 0 0 0 0 0 0 0 0 0 0 0 0 0 0 0 0 0 0 0 0 0 0 0 0 0 0 0 0 0 0
0 0 0 0 0 0 0 0 0 0 0 0 -0 0 -0 -0 -0 -0 -0 -0 0 0 0 0 0 0 0 0 0 0 0 0 0 0 0 0 0 0 0 0 0 0 0
0 0 0 0 0 0 0 0 0 0 0 0 0 0 -0 -0 -0 -0 0 0 0 0 0 0 0 0 0 0 0 0 0 0 0 0 0 0 0 0 0 0 0 0 0
0 0 0 0 0 0 0 0 0 0 0 0 0 0 0 -0 -0 0 0 0 0 0 0 0 0 -0 0 0 0 0 0 0 0 0 0 0 0 0 0 0 0 0 0
0 0 0 0 0 0 0 0 0 0 0 0 -0 -0 0 0 0 0 0 0 0 0 -0 -0 -0 0 0 0 0 0 0 0 0 0 0 0 0 0 0 0 0 0 0
0 0 0 0 0 0 0 0 0 -0 -0 0 0 -0 0 0 0 0 0 0 0 0 0 0 0 0 -0 -0 0 0 0 0 0 0 0 0 0 0 0 0 0 -0 -0
0 0 0 0 0 0 0 -0 -0 0 0 0 0 0 0 0 -0 0 0 0 0 0 0 -0 -0 -0 -0 -0 0 0 0 0 0 0 0 0 -0 -0 -0 -0 -0 0 0
0 0 0 0 0 0 0 0 0 0 0 0 0 0 0 0 0 0 0 0 0 0 -0 -0 -0 -0 -0 0 0 0 0 0 0 0 -0 -0 -0 -0 -0 -0 0 0 0
0 0 0 0 0 0 0 0 0 0 0 0 0 0 0 0 0 0 0 0 0 0 0 0 0 -0 0 0 0 -0 -0 -0 -0 0 -0 -0 -0 -0 0 0 0 0 0
0 0 0 0 0 0 0 0 0 0 0 0 -0 0 0 0 0 -0 -0 0 0 0 0 0 0 0 0 0 0 -0 -0 -0 -0 -0 0 -0 0 0 0 0 0 0 0
0 0 0 0 0 0 0 0 0 0 0 0 0 0 0 0 -0 -0 -0 -0 -0 -0 0 0 0 0 0 0 0 0 -0 -0 0 0 0 0 0 0 0 0 0 0 0
0 0 0 0 0 -0 0 0 0 0 0 0 0 0 0 0 0 0 -0 -0 -0 -0 0 0 0 0 0 0 -0 0 -0 -0 -0 0 0 0 0 0 0 0 0 0 0
Wind_Speed_500mb
37 21 60 39 27 10 3 34 41 45 40 34 42 46 44 41 43 53 57 53 37 39 45 86 75 75 69 70 77 82 85 93 95 81 84 84 82 72 73 46 46 48 40
24 33 46 75 37 41 30 8 22 33 38 45 27 33 38 43 50 63 64 53 47 61 70 80 76 78 77 64 74 79 78 89 97 81 75 49 56 49 27 26 31 26 25
57 47 54 65 77 68 38 22 11 9 15 28 37 37 41 43 53 53 52 49 49 40 51 64 63 60 62 68 79 87 97 86 85 85 57 14 9 14 11 16 15 21 20
64 70 61 53 58 47 44 51 30 12 15 17 27 35 48 49 50 58 43 42 43 35 32 38 39 38 42 54 60 70 76 74 65 59 39 22 28 14 18 12 21 15 18
59 60 62 57 44 41 46 42 39 31 21 19 21 26 43 42 38 28 25 18 12 11 14 25 36 40 47 49 56 58 59 62 60 53 36 24 24 23 25 29 18 15 15
61 62 59 60 67 52 41 38 39 34 28 21 21 26 33 37 36 30 27 26 18 19 24 27 32 41 56 52 55 50 51 53 53 45 39 31 20 10 8 13 22 22 19
48 48 59 61 64 69 58 50 47 50 49 49 47 46 48 49 42 37 29 33 29 24 26 34 42 49 49 45 45 34 34 21 21 15 20 20 11 10 11 16 29 21 22
49 49 50 53 58 61 61 58 58 53 51 48 46 49 50 56 54 41 35 30 28 29 28 28 29 29 31 31 27 21 5 7 6 8 11 12 13 10 13 19 25 32 32
42 42 41 39 48 55 60 59 59 62 64 62 53 46 47 53 53 52 50 45 38 31 22 11 3 3 5 9 11 4 7 9 7 6 3 5 5 11 21 28 33 32 29
37 39 39 38 36 39 45 53 54 61 61 60 60 56 52 49 48 51 55 55 36 26 16 8 9 10 9 10 10 7 7 7 9 5 7 13 16 22 25 26 27 23 22
30 33 36 36 37 37 38 45 52 59 62 61 57 58 60 62 54 50 47 51 40 27 12 7 10 10 16 18 16 20 15 15 14 12 13 17 20 25 28 29 32 37 42
20 29 34 37 36 37 41 43 49 58 64 68 71 60 56 60 52 47 44 35 32 26 14 7 12 8 9 6 4 3 5 2 2 9 12 19 25 31 30 29 30 32 34
42 46 46 47 44 49 56 60 57 59 63 68 81 72 67 52 58 48 43 41 36 27 19 12 19 19 13 13 7 3 9 17 21 22 20 22 27 29 30 34 38 41 45
51 50 56 55 55 57 57 55 55 59 58 79 74 70 72 60 59 53 51 43 40 26 29 18 24 26 17 9 10 15 15 15 23 29 34 37 37 38 39 45 50 55 57
54 55 55 56 59 62 63 64 63 65 66 76 69 70 66 58 55 50 50 44 40 38 33 24 28 16 9 2 8 12 13 16 25 27 28 28 31 39 42 46 48 46 32
49 51 50 56 60 66 60 59 63 51 62 68 72 55 64 66 67 70 56 48 42 48 41 29 20 17 17 21 24 29 27 24 19 19 23 27 28 33 32 30 24 18 28
48 50 54 50 59 60 51 48 46 54 65 69 67 72 72 71 68 58 42 24 20 8 36 45 38 30 33 26 33 33 15 10 14 21 26 31 29 31 36 25 14 17 24
43 48 51 49 53 39 48 50 52 63 64 64 64 68 67 56 50 39 18 13 21 22 21 17 18 23 28 32 40 9 6 5 13 18 21 28 30 38 28 21 18 15 17
49 52 45 44 38 43 39 49 54 55 56 60 74 77 61 43 22 12 20 27 27 28 23 22 21 25 33 38 29 4 8 12 15 19 22 26 29 27 20 19 15 15 18
53 53 53 45 47 30 42 51 70 69 57 55 66 70 41 39 37 32 33 33 30 21 17 23 27 32 40 45 32 25 19 17 18 19 23 28 28 15 15 20 25 20 17
56 54 46 42 29 37 43 62 73 55 55 52 57 55 24 47 36 21 28 31 34 29 28 33 34 40 48 42 39 40 29 27 22 22 25 26 26 23 19 22 21 20 23
41 42 43 46 47 55 58 54 53 43 52 53 47 40 37 32 38 43 30 29 29 35 40 32 33 41 45 28 38 44 39 38 37 33 26 23 22 21 19 20 19 17 25
45 45 46 51 48 47 50 52 46 39 48 36 38 38 38 39 40 30 22 26 32 27 31 19 26 38 32 32 40 41 47 40 40 42 42 24 23 23 21 20 20 28 37
53 54 53 54 51 49 36 43 41 43 35 26 40 30 30 34 41 47 40 29 23 20 18 15 29 35 45 46 42 40 39 38 38 40 38 41 40 31 34 30 31 33 33
47 55 39 41 50 36 28 33 31 45 23 23 27 24 27 31 39 47 51 50 51 38 33 38 40 43 48 52 50 47 41 38 34 33 33 36 40 37 33 32 30 32 33
56 49 39 45 47 35 22 24 30 34 29 25 25 25 24 17 25 34 42 50 57 50 46 47 46 49 45 40 41 43 45 43 39 39 41 39 37 36 37 36 35 37 37
Wind_Direction_500mb
295 338 13 10 14 21 272 228 215 211 221 228 236 242 243 243 234 234 238 235 240 296 268 262 280 297 292 266 269 272 276 273 277 271 275 286 287 286 299 285 261 271 262
70 51 44 42 29 40 57 81 224 228 237 245 252 250 256 242 244 240 236 239 265 259 256 260 278 281 291 272 270 274 278 282 281 277 283 287 295 295 298 285 273 267 253
48 44 53 47 47 42 23 12 5 256 248 256 260 249 259 251 256 262 257 268 270 257 286 267 289 293 274 273 273 279 285 288 290 285 278 275 256 334 6 354 308 271 242
57 50 43 41 52 42 41 45 19 1 280 286 271 278 274 272 276 278 302 301 251 275 264 276 284 295 287 279 285 289 292 291 283 281 264 249 280 251 298 285 296 288 270
53 46 34 33 31 37 34 41 48 37 15 315 321 315 291 285 301 298 324 348 351 306 310 308 309 295 289 290 288 291 294 288 282 266 247 248 272 265 265 298 323 299 290
61 49 33 27 32 35 38 32 27 31 28 20 334 327 336 345 335 310 307 315 330 321 302 288 276 278 287 291 294 297 293 280 254 262 259 248 257 269 273 292 311 299 287
58 51 48 34 26 33 35 29 22 18 13 4 2 356 341 350 344 342 346 339 329 322 309 293 283 280 282 282 284 297 291 273 251 279 227 258 243 247 299 308 290 290 286
71 63 52 41 29 23 26 32 29 22 14 6 3 355 345 345 342 344 348 342 335 324 314 302 288 280 272 269 276 275 256 223 263 207 214 236 260 264 294 291 310 308 300
76 72 64 58 45 28 24 20 21 21 20 15 8 2 1 346 347 342 341 342 342 339 340 342 27 240 213 168 147 174 122 113 72 60 36 355 299 282 280 292 308 301 308
68 70 62 52 39 28 14 5 7 9 9 9 10 4 358 343 337 336 330 338 344 344 3 24 55 97 105 122 134 111 83 51 44 43 325 303 305 305 294 291 294 304 298
60 63 54 43 24 16 18 8 358 355 356 358 357 352 348 346 333 329 325 332 341 345 13 39 73 75 74 72 65 49 37 17 356 339 316 289 289 286 287 282 280 283 287
46 49 34 30 32 24 13 7 353 349 348 344 343 342 340 338 333 330 315 320 330 335 345 53 62 79 113 100 81 17 320 58 80 302 285 277 283 287 282 286 284 286 292
50 43 36 21 13 1 353 347 343 338 340 340 339 335 338 333 330 327 321 304 310 299 291 267 245 229 191 173 154 257 294 303 289 299 309 314 308 302 305 309 307 306 304
23 19 9 2 358 355 351 349 341 341 335 339 340 341 341 336 327 324 330 314 298 283 276 246 184 177 185 222 274 280 290 319 323 318 312 305 306 313 315 316 316 314 309
15 6 357 353 351 346 340 336 333 335 335 339 338 339 338 343 344 329 330 318 313 271 256 236 217 181 145 132 13 347 337 324 311 306 312 316 319 314 312 311 312 315 331
2 355 351 348 348 342 342 341 340 347 340 335 338 334 331 331 331 331 327 324 320 305 236 194 149 97 62 21 355 341 328 322 302 305 323 322 325 327 334 329 329 330 343
357 352 345 341 342 339 349 352 342 335 344 341 340 339 335 329 330 337 341 352 8 115 75 64 60 32 20 3 355 340 337 341 332 332 334 336 342 338 333 340 337 348 343
344 335 332 334 338 349 346 349 344 345 342 344 345 341 339 341 346 353 357 62 90 84 64 52 38 24 22 8 358 346 107 3 349 347 344 338 338 335 348 357 347 359 340
336 330 335 340 346 346 348 343 350 359 356 352 352 348 346 344 348 38 64 57 36 47 65 64 61 45 24 359 6 303 332 339 339 347 342 341 332 351 359 359 27 31 24
341 344 346 348 346 5 357 1 357 351 359 346 356 1 358 53 26 58 67 68 58 40 61 62 42 30 15 11 30 38 35 45 37 358 355 351 352 22 17 42 56 54 42
331 335 336 346 5 347 341 352 353 360 350 346 355 359 26 5 17 35 54 48 41 32 64 44 35 21 18 23 36 36 39 50 34 19 6 9 24 42 44 68 62 40 29
4 4 12 20 13 357 357 350 351 339 349 356 10 23 26 37 55 60 47 47 56 67 50 41 32 20 17 36 44 35 47 53 46 33 22 17 26 48 65 71 55 45 34
360 351 353 349 346 1 350 355 347 352 358 15 32 46 38 55 58 46 48 59 82 83 85 73 37 26 47 52 51 63 59 52 47 45 39 48 63 82 76 82 64 55 36
339 337 333 339 331 344 350 354 341 0 1 39 40 63 57 46 57 45 43 42 40 45 64 60 41 65 64 60 54 51 55 52 54 56 57 58 64 67 71 74 64 42 42
332 338 341 342 334 338 342 342 346 357 22 56 66 54 54 66 42 40 46 45 49 56 70 73 81 69 62 52 46 42 43 49 56 61 69 78 74 74 74 69 52 42 43
325 325 328 330 337 1 356 352 2 21 47 56 56 46 33 31 39 39 54 59 52 60 75 82 72 59 52 49 49 48 56 60 60 61 63 61 58 55 55 55 44 48 48
Wind_Speed_850mb
37 21 60 39 27 10 3 34 41 45 40 34 42 46 44 41 43 53 57 53 37 39 45 86 75 75 69 70 77 82 85 93 95 81 84 84 82 72 73 46 46 48 40
24 33 46 75 37 41 30 8 22 33 38 45 27 33 38 43 50 63 64 53 47 61 70 80 76 78 77 64 74 79 78 89 97 81 75 49 56 49 27 26 31 26 25
57 47 54 65 77 68 38 22 11 9 15 28 37 37 41 43 53 53 52 49 49 40 51 64 63 60 62 68 79 87 97 86 85 85 57 14 9 14 11 16 15 21 20
64 70 61 53 58 47 44 51 30 12 15 17 27 35 48 49 50 58 43 42 43 35 32 38 39 38 42 54 60 70 76 74 65 59 39 22 28 14 18 12 21 15 18
59 60 62 57 44 41 46 42 39 31 21 19 21 26 43 42 38 28 25 18 12 11 14 25 36 40 47 49 56 58 59 62 60 53 36 24 24 23 25 29 18 15 15
61 62 59 60 67 52 41 38 39 34 28 21 21 26 33 37 36 30 27 26 18 19 24 27 32 41 56 52 55 50 51 53 53 45 39 31 20 10 8 13 22 22 19
48 48 59 61 64 69 58 50 47 50 49 49 47 46 48 49 42 37 29 33 29 24 26 34 42 49 49 45 45 34 34 21 21 15 20 20 11 10 11 16 29 21 22
49 49 50 53 58 61 61 58 58 53 51 48 46 49 50 56 54 41 35 30 28 29 28 28 29 29 31 31 27 21 5 7 6 8 11 12 13 10 13 19 25 32 32
42 42 41 39 48 55 60 59 59 62 64 62 53 46 47 53 53 52 50 45 38 31 22 11 3 3 5 9 11 4 7 9 7 6 3 5 5 11 21 28 33 32 29
37 39 39 38 36 39 45 53 54 61 61 60 60 56 52 49 48 51 55 55 36 26 16 8 9 10 9 10 10 7 7 7 9 5 7 13 16 22 25 26 27 23 22
30 33 36 36 37 37 38 45 52 59 62 61 57 58 60 62 54 50 47 51 40 27 12 7 10 10 16 18 16 20 15 15 14 12 13 17 20 25 28 29 32 37 42
20 29 34 37 36 37 41 43 49 58 64 68 71 60 56 60 52 47 44 35 32 26 14 7 12 8 9 6 4 3 5 2 2 9 12 19 25 31 30 29 30 32 34
42 46 46 47 44 49 56 60 57 59 63 68 81 72 67 52 58 48 43 41 36 27 19 12 19 19 13 13 7 3 9 17 21 22 20 22 27 29 30 34 38 41 45
51 50 56 55 55 57 57 55 55 59 58 79 74 70 72 60 59 53 51 43 40 26 29 18 24 26 17 9 10 15 15 15 23 29 34 37 37 38 39 45 50 55 57
54 55 55 56 59 62 63 64 63 65 66 76 69 70 66 58 55 50 50 44 40 38 33 24 28 16 9 2 8 12 13 16 25 27 28 28 31 39 42 46 48 46 32
49 51 50 56 60 66 60 59 63 51 62 68 72 55 64 66 67 70 56 48 42 48 41 29 20 17 17 21 24 29 27 24 19 19 23 27 28 33 32 30 24 18 28
48 50 54 50 59 60 51 48 46 54 65 69 67 72 72 71 68 58 42 24 20 8 36 45 38 30 33 26 33 33 15 10 14 21 26 31 29 31 36 25 14 17 24
43 48 51 49 53 39 48 50 52 63 64 64 64 68 67 56 50 39 18 13 21 22 21 17 18 23 28 32 40 9 6 5 13 18 21 28 30 38 28 21 18 15 17
49 52 45 44 38 43 39 49 54 55 56 60 74 77 61 43 22 12 20 27 27 28 23 22 21 25 33 38 29 4 8 12 15 19 22 26 29 27 20 19 15 15 18
53 53 53 45 47 30 42 51 70 69 57 55 66 70 41 39 37 32 33 33 30 21 17 23 27 32 40 45 32 25 19 17 18 19 23 28 28 15 15 20 25 20 17
56 54 46 42 29 37 43 62 73 55 55 52 57 55 24 47 36 21 28 31 34 29 28 33 34 40 48 42 39 40 29 27 22 22 25 26 26 23 19 22 21 20 23
41 42 43 46 47 55 58 54 53 43 52 53 47 40 37 32 38 43 30 29 29 35 40 32 33 41 45 28 38 44 39 38 37 33 26 23 22 21 19 20 19 17 25
45 45 46 51 48 47 50 52 46 39 48 36 38 38 38 39 40 30 22 26 32 27 31 19 26 38 32 32 40 41 47 40 40 42 42 24 23 23 21 20 20 28 37
53 54 53 54 51 49 36 43 41 43 35 26 40 30 30 34 41 47 40 29 23 20 18 15 29 35 45 46 42 40 39 38 38 40 38 41 40 31 34 30 31 33 33
47 55 39 41 50 36 28 33 31 45 23 23 27 24 27 31 39 47 51 50 51 38 33 38 40 43 48 52 50 47 41 38 34 33 33 36 40 37 33 32 30 32 33
56 49 39 45 47 35 22 24 30 34 29 25 25 25 24 17 25 34 42 50 57 50 46 47 46 49 45 40 41 43 45 43 39 39 41 39 37 36 37 36 35 37 37
Wind_Direction_850mb
295 338 13 10 14 21 272 228 215 211 221 228 236 242 243 243 234 234 238 235 240 296 268 262 280 297 292 266 269 272 276 273 277 271 275 286 287 286 299 285 261 271 262
70 51 44 42 29 40 57 81 224 228 237 245 252 250 256 242 244 240 236 239 265 259 256 260 278 281 291 272 270 274 278 282 281 277 283 287 295 295 298 285 273 267 253
48 44 53 47 47 42 23 12 5 256 248 256 260 249 259 251 256 262 257 268 270 257 286 267 289 293 274 273 273 279 285 288 290 285 278 275 256 334 6 354 308 271 242
57 50 43 41 52 42 41 45 19 1 280 286 271 278 274 272 276 278 302 301 251 275 264 276 284 295 287 279 285 289 292 291 283 281 264 249 280 251 298 285 296 288 270
53 46 34 33 31 37 34 41 48 37 15 315 321 315 291 285 301 298 324 348 351 306 310 308 309 295 289 290 288 291 294 288 282 266 247 248 272 265 265 298 323 299 290
61 49 33 27 32 35 38 32 27 31 28 20 334 327 336 345 335 310 307 315 330 321 302 288 276 278 287 291 294 297 293 280 254 262 259 248 257 269 273 292 311 299 287
58 51 48 34 26 33 35 29 22 18 13 4 2 356 341 350 344 342 346 339 329 322 309 293 283 280 282 282 284 297 291 273 251 279 227 258 243 247 299 308 290 290 286
71 63 52 41 29 23 26 32 29 22 14 6 3 355 345 345 342 344 348 342 335 324 314 302 288 280 272 269 276 275 256 223 263 207 214 236 260 264 294 291 310 308 300
76 72 64 58 45 28 24 20 21 21 20 15 8 2 1 346 347 342 341 342 342 339 340 342 27 240 213 168 147 174 122 113 72 60 36 355 299 282 280 292 308 301 308
68 70 62 52 39 28 14 5 7 9 9 9 10 4 358 343 337 336 330 338 344 344 3 24 55 97 105 122 134 111 83 51 44 43 325 303 305 305 294 291 294 304 298
60 63 54 43 24 16 18 8 358 355 356 358 357 352 348 346 333 329 325 332 341 345 13 39 73 75 74 72 65 49 37 17 356 339 316 289 289 286 287 282 280 283 287
46 49 34 30 32 24 13 7 353 349 348 344 343 342 340 338 333 330 315 320 330 335 345 53 62 79 113 100 81 17 320 58 80 302 285 277 283 287 282 286 284 286 292
50 43 36 21 13 1 353 347 343 338 340 340 339 335 338 333 330 327 321 304 310 299 291 267 245 229 191 173 154 257 294 303 289 299 309 314 308 302 305 309 307 306 304
23 19 9 2 358 355 351 349 341 341 335 339 340 341 341 336 327 324 330 314 298 283 276 246 184 177 185 222 274 280 290 319 323 318 312 305 306 313 315 316 316 314 309
15 6 357 353 351 346 340 336 333 335 335 339 338 339 338 343 344 329 330 318 313 271 256 236 217 181 145 132 13 347 337 324 311 306 312 316 319 314 312 311 312 315 331
2 355 351 348 348 342 342 341 340 347 340 335 338 334 331 331 331 331 327 324 320 305 236 194 149 97 62 21 355 341 328 322 302 305 323 322 325 327 334 329 329 330 343
357 352 345 341 342 339 349 352 342 335 344 341 340 339 335 329 330 337 341 352 8 115 75 64 60 32 20 3 355 340 337 341 332 332 334 336 342 338 333 340 337 348 343
344 335 332 334 338 349 346 349 344 345 342 344 345 341 339 341 346 353 357 62 90 84 64 52 38 24 22 8 358 346 107 3 349 347 344 338 338 335 348 357 347 359 340
336 330 335 340 346 346 348 343 350 359 356 352 352 348 346 344 348 38 64 57 36 47 65 64 61 45 24 359 6 303 332 339 339 347 342 341 332 351 359 359 27 31 24
341 344 346 348 346 5 357 1 357 351 359 346 356 1 358 53 26 58 67 68 58 40 61 62 42 30 15 11 30 38 35 45 37 358 355 351 352 22 17 42 56 54 42
331 335 336 346 5 347 341 352 353 360 350 346 355 359 26 5 17 35 54 48 41 32 64 44 35 21 18 23 36 36 39 50 34 19 6 9 24 42 44 68 62 40 29
4 4 12 20 13 357 357 350 351 339 349 356 10 23 26 37 55 60 47 47 56 67 50 41 32 20 17 36 44 35 47 53 46 33 22 17 26 48 65 71 55 45 34
360 351 353 349 346 1 350 355 347 352 358 15 32 46 38 55 58 46 48 59 82 83 85 73 37 26 47 52 51 63 59 52 47 45 39 48 63 82 76 82 64 55 36
339 337 333 339 331 344 350 354 341 0 1 39 40 63 57 46 57 45 43 42 40 45 64 60 41 65 64 60 54 51 55 52 54 56 57 58 64 67 71 74 64 42 42
332 338 341 342 334 338 342 342 346 357 22 56 66 54 54 66 42 40 46 45 49 56 70 73 81 69 62 52 46 42 43 49 56 61 69 78 74 74 74 69 52 42 43
325 325 328 330 337 1 356 352 2 21 47 56 56 46 33 31 39 39 54 59 52 60 75 82 72 59 52 49 49 48 56 60 60 61 63 61 58 55 55 55 44 48 48